Погода в Сосновке

Украина / Львовская область     50°17′39″N   24°15′13″E
темп.,
°C
ветер,
м/с
пор.,
м/с
влажн.,
%
обл.,
%
осадки,
мм/ч
давл.,
гПа
погр.,
м
7 марта, вс
вс723:00−1зюз5127331 0.0 1028379
02:00−1зюз6127016 0.0 1027440
05:00−1зюз714620 0.0 1024668
08:000зюз9165515 0.0 1022980
11:00+3з10165267 0.0 10211331
14:00+5з10154675 0.0 10181551
17:00+4з7145338 0.0 10161543
20:00+1з5126743 0.0 1016465
8 марта, пн
пн823:000з5127699 0.0 1015837
02:00−1з6128897 0.1 1015634
05:00−1з6119298 0.3 1014719
08:00−1ссз588099 0.9 1015598
11:00+1сз685547 0.0 10171292
14:00+2сз795557 0.1 10181616
17:00+1сз6964100 0.1 10181327
20:00−2сз3878100 0.1 1020235
9 марта, вт
вт923:00−3зсз35821 0.0 1021138
02:00−3зсз36830 0.0 1022175
05:00−4зсз25850 0.0 1022154
08:00−3сз247642 0.0 1023322
11:000ссз235385 0.0 10231061
14:00+1ссз224589 0.0 10231469
17:000ссв224999 0.0 10221211
20:00−2в336591 0.0 102364
10 марта, ср
ср1023:00−3вюв347088 0.0 1023128
02:00−2вюв247094 0.0 1022134
05:00−2в2371100 0.0 1021116
08:00−2в2367100 0.0 1022194
11:00+1всв224887 0.0 10221102
14:00+2ссв334266 0.0 10221589
17:00+1ссв334999 0.0 10221424
20:00−2всв126060 0.0 102421
11 марта, чт
чт1123:00−2ю116110 0.0 102521
02:00−2ююз22635 0.0 102421
05:00−3юз12678 0.0 102323
08:00−1ю34704 0.0 1023198
11:00+2ю575167 0.0 1021906
14:00+4ююз694683 0.0 10181169
17:00+3ююз51059100 0.0 1016947
20:00+1ю61476100 0.1 1015841